Find Starlink 5699

NORAD ID: 55449 Int'l Des: 2023-015 Owner: SPXS Country: US Constellation: starlink operational
LEOCIRCULAR

現在のビュー

3D地球を読み込み中...

About Starlink 5699

Starlink 5699 (NORAD 55449) is a starlink constellation satellite (v1.5) launched Feb 2, 2023 by SPXS of US. It operates in LEO, CIRCULAR orbit with a mass of 305.00 kg.

Starlink 5699について

説明を読み込み中...

次回通過

Passes for default location (London). Set your location on the main map for personalized predictions.

高度履歴

Loading altitude history...

軌道要素

1 55449U 23015A 26166.21495235 .00001176 00000-0 52264-4 0 9998
2 55449 43.0014 138.2627 0001073 276.1331 83.9399 15.27575877186576
Epoch: Jun 15, 2026 • Age: 16 hours

現在のステータス

高度 489.2 km
速度 7.62 km/s
衛星直下点 -26.46°S, 111.7°W
打ち上げ日 Feb 2, 2023
運用期間 3.3 years
タイプ internet

技術仕様

分類 Payload
質量 305.00 kg
乾燥質量 290.00 kg
総質量 305.00 kg
長さ 0.20 m
直径 2.80 m
スパン 9.00 m
形状 Box + pan
製造者 SPXS
バスタイプ Starlink
フェーズステータス In Orbit
所有者/国 SPXS/US

Most Searched